Theta_e
294 293 293 293 293 293 293 293 293 293 293 293 293 293 294 294 294 295 295 296 296 296 297 297 298 298 298 298 298 298 298 298 298 297 297 297 297 296 296 295 295 295 294 294 294 293 293 293 293 293 293 293 293 293 293 294 294 294 294 294 294 293 293 293 293 293 293 293 293 293 293 292 292 292 292 292 292 292 292 291 291 291 291 292 292 292
293 293 293 293 293 293 293 293 293 293 293 293 293 293 294 294 294 295 295 296 296 297 297 297 298 298 298 298 298 298 298 298 297 297 297 297 296 296 296 295 295 294 294 294 293 293 293 293 293 293 293 293 293 293 294 294 294 294 294 294 294 294 293 293 293 293 293 293 293 293 293 293 293 293 292 292 292 292 292 292 292 292 292 292 292 292
293 293 293 293 293 293 293 293 293 294 293 293 293 294 294 294 294 295 295 295 296 296 297 297 298 298 298 298 298 298 298 297 297 297 297 296 296 296 295 295 295 294 294 293 293 293 293 293 293 293 293 293 293 294 294 294 294 294 294 294 294 294 293 293 293 293 293 293 293 293 293 293 293 293 293 292 292 292 292 292 292 292 292 292 292 293
293 293 293 293 293 293 293 293 294 294 293 293 294 294 294 294 295 295 295 295 296 296 297 297 298 298 298 298 298 297 297 297 297 297 296 296 296 295 295 295 294 294 293 293 293 293 293 293 293 293 293 293 293 294 294 294 294 294 294 294 294 293 293 293 293 293 293 293 293 293 293 293 293 293 293 292 292 292 292 292 292 292 292 292 292 293
293 293 293 293 293 293 293 294 294 294 294 294 294 294 294 295 295 295 295 296 296 296 297 297 297 298 298 298 297 297 297 297 296 296 296 296 295 295 295 294 294 294 293 293 293 293 293 293 293 293 293 293 293 293 294 294 294 294 294 294 294 293 293 293 293 293 293 293 293 293 293 293 293 292 292 292 292 292 292 292 292 292 292 292 292 292
294 293 293 293 294 294 294 294 294 294 294 294 294 294 295 295 295 295 296 296 296 297 297 297 297 297 298 297 297 297 297 296 296 296 295 295 295 295 294 294 294 294 293 293 293 293 293 293 293 293 293 293 293 293 294 294 294 294 294 294 293 293 293 293 293 293 293 293 293 293 293 293 292 292 292 292 292 292 292 292 292 292 292 292 292 292
294 294 294 294 294 294 294 294 294 294 294 294 294 295 295 295 295 295 296 296 297 297 297 297 297 297 297 297 297 297 297 296 296 296 295 295 295 294 294 294 294 293 293 293 293 293 293 293 293 293 293 293 293 293 293 293 293 293 293 293 293 293 293 293 293 293 293 293 293 293 293 292 292 292 292 292 292 292 291 291 291 291 291 291 291 291
294 294 295 294 294 294 295 295 295 295 295 295 295 295 295 295 295 295 296 296 297 297 297 297 297 297 297 297 297 297 297 296 296 295 295 295 295 294 294 294 294 293 293 293 293 293 293 293 293 293 293 293 293 293 293 293 293 293 293 293 293 293 293 293 293 293 293 293 293 293 292 292 292 292 292 292 291 291 291 291 291 291 291 291 291 291
295 295 295 295 295 295 295 295 296 296 296 296 296 296 296 296 296 296 296 296 296 297 297 297 297 297 297 297 297 297 297 296 296 295 295 295 294 294 294 294 294 293 293 293 293 293 293 293 293 293 293 293 293 293 293 293 293 293 293 293 293 293 293 293 293 293 293 293 293 292 292 292 292 292 291 291 291 291 291 291 291 291 291 291 291 291
296 296 296 296 296 296 296 296 296 296 297 296 296 296 296 296 296 296 296 296 296 296 296 297 297 297 297 297 297 297 296 296 296 295 295 295 294 294 294 294 294 294 293 293 293 293 293 293 293 293 293 293 293 293 293 293 293 293 293 293 293 293 293 293 293 293 293 293 292 292 292 292 292 291 291 291 291 291 291 291 291 291 290 290 290 290
297 297 297 297 297 297 297 297 297 297 297 297 296 296 296 296 296 296 296 296 296 296 296 296 296 297 297 297 297 296 296 296 295 295 295 295 294 294 294 294 294 294 294 293 293 293 293 293 293 293 293 293 293 293 293 293 293 293 293 293 293 293 293 293 293 293 293 292 292 292 292 291 291 291 291 291 291 291 290 290 290 290 290 290 290 290
298 298 298 298 298 298 298 298 298 297 297 297 296 296 295 295 295 295 296 296 296 296 296 296 296 296 297 297 296 296 296 296 295 295 295 295 294 294 294 294 294 294 294 294 293 293 293 293 293 293 293 293 293 293 293 293 293 293 293 293 293 293 293 293 293 293 292 292 292 292 291 291 291 291 291 291 291 290 290 290 290 290 290 290 290 290
298 298 298 298 299 299 299 299 298 298 298 297 296 296 295 295 295 295 295 296 296 296 296 296 296 296 296 296 296 296 296 296 295 295 295 295 294 294 294 294 294 294 294 294 294 293 293 293 293 293 293 293 293 293 293 293 293 293 293 293 293 293 293 293 293 292 292 292 292 291 291 291 291 291 291 291 290 290 290 290 290 290 290 290 290 290
299 299 299 299 299 299 299 299 299 299 298 297 296 296 295 295 294 295 295 295 295 295 296 296 296 296 296 296 296 296 296 296 295 295 295 295 295 295 295 295 294 294 294 294 294 294 293 293 293 293 293 293 293 293 293 293 293 293 293 293 293 293 293 293 292 292 292 292 292 291 291 291 291 291 291 290 290 290 290 290 290 290 290 289 289 289
299 299 299 299 299 299 299 299 299 298 298 297 296 296 295 295 294 294 294 295 295 295 295 296 296 296 296 296 296 296 296 296 296 296 296 296 295 295 295 295 295 295 295 294 294 294 293 293 293 293 293 293 293 293 293 293 293 293 292 292 293 293 293 292 292 292 292 292 292 292 292 291 291 291 291 290 290 290 290 290 290 289 289 289 289 289
300 299 299 299 299 299 299 298 298 297 297 296 296 296 295 294 294 294 294 294 294 295 295 295 295 296 296 296 296 296 296 296 296 296 296 296 296 295 295 295 295 295 295 295 294 294 293 293 293 293 293 293 293 293 293 293 292 292 292 292 292 293 293 293 292 292 292 292 292 292 292 291 291 291 290 290 290 290 290 289 289 289 289 289 289 289
300 299 299 299 299 299 298 298 297 297 296 296 295 295 294 294 294 294 294 294 294 294 294 295 295 295 295 296 296 296 296 295 295 296 296 296 296 295 295 295 295 295 295 295 294 294 294 293 293 293 293 293 293 293 292 292 292 292 292 292 292 292 292 292 292 292 292 292 292 292 292 291 291 291 290 290 290 290 289 289 289 289 289 288 288 288
299 299 299 299 299 298 298 297 297 296 296 295 294 294 293 293 293 293 293 293 293 294 294 294 294 295 295 295 295 295 295 295 295 295 295 295 295 295 295 295 295 295 295 294 294 294 293 293 293 293 293 293 292 292 292 292 292 292 292 292 292 292 292 292 292 292 292 292 292 292 291 291 291 291 290 290 290 290 289 289 289 289 288 288 288 288
299 299 298 298 298 297 297 296 296 295 294 294 293 293 293 293 293 293 293 293 293 293 293 294 294 295 295 295 295 295 295 294 294 294 295 295 295 295 295 295 295 295 295 294 294 294 293 293 293 293 292 292 292 292 292 292 292 292 292 292 292 292 292 292 292 292 292 292 291 291 291 291 291 290 290 290 290 290 289 289 289 289 288 288 288 288
298 298 298 298 297 297 296 296 295 294 293 293 293 293 293 293 293 293 293 293 293 293 294 294 294 295 295 295 295 294 294 294 294 294 294 295 295 295 295 295 295 294 294 294 294 293 293 292 292 292 292 292 291 291 291 291 291 291 291 291 291 291 291 291 291 291 291 291 291 291 291 291 291 290 290 290 290 290 289 289 289 288 288 288 288 288
298 298 298 297 297 296 296 296 295 294 294 294 294 294 294 294 294 293 293 293 293 294 294 294 294 294 294 294 294 294 293 293 293 293 294 294 295 295 294 294 294 294 294 293 293 292 292 292 292 292 291 291 291 291 291 291 291 291 291 291 291 291 291 291 291 291 291 291 291 290 290 290 290 290 290 290 290 289 289 289 289 288 288 288 288 288
299 298 298 298 297 297 297 296 296 295 295 295 295 295 295 294 294 294 294 294 293 293 293 293 293 293 293 294 294 293 293 293 293 293 293 293 294 294 294 293 293 293 293 293 292 292 292 291 291 291 291 291 291 291 291 291 291 291 291 291 291 291 291 290 290 290 290 290 290 290 290 290 290 290 289 289 289 289 289 289 288 288 288 288 287 287
299 299 298 298 298 297 297 297 296 296 296 295 295 295 295 295 294 294 293 293 293 293 293 293 293 293 293 293 293 293 293 293 292 292 292 292 293 293 293 292 292 292 292 292 291 291 291 291 291 291 291 291 291 291 291 291 291 290 290 290 290 290 290 290 290 290 290 290 290 290 289 289 289 289 289 289 289 289 288 288 288 288 288 287 287 287
299 299 298 298 298 298 297 297 296 296 296 295 295 295 294 294 293 293 292 292 292 292 292 292 293 293 294 294 293 293 293 293 292 292 291 292 292 292 292 292 291 291 291 291 291 291 291 291 291 291 291 291 291 291 290 290 290 290 290 290 290 290 290 290 290 290 290 290 289 289 289 289 289 288 288 288 288 288 288 288 288 287 287 287 287 287
299 298 298 298 298 298 297 297 296 296 295 295 294 294 293 293 292 292 292 292 292 292 292 292 293 293 293 293 293 293 292 292 291 291 291 291 291 291 291 291 290 290 290 290 290 290 290 290 291 290 290 290 290 290 290 290 290 290 290 289 289 289 289 289 289 289 289 289 289 289 288 288 288 288 288 288 288 288 288 287 287 287 287 287 287 287
298 298 298 298 298 297 297 297 296 296 295 295 294 293 292 292 292 292 292 292 292 292 292 292 292 292 292 292 291 291 291 291 290 290 290 290 290 290 290 290 290 290 290 290 290 290 290 290 290 290 290 290 289 289 289 289 289 289 289 289 289 289 289 289 289 289 289 289 289 288 288 288 288 288 288 288 288 287 287 287 287 287 286 286 286 287
298 298 298 298 297 297 297 297 296 296 295 294 294 293 292 292 292 293 293 293 292 292 291 291 291 291 291 290 290 290 290 290 289 289 289 289 289 290 290 290 289 289 289 289 289 289 289 289 289 289 289 289 289 289 289 288 288 288 288 288 288 288 289 288 289 288 288 288 288 288 288 288 288 288 288 288 287 287 287 287 287 286 286 286 286 287
297 297 297 297 297 297 296 296 296 295 294 293 293 293 293 293 292 292 292 292 292 291 291 291 290 290 289 289 290 289 289 289 289 289 289 289 289 289 289 289 289 289 289 288 288 288 288 288 288 288 288 288 288 288 288 288 288 288 288 288 288 288 288 288 288 288 288 288 288 288 287 287 287 287 287 287 287 287 287 287 286 286 286 286 286 287
297 297 297 297 296 296 295 295 294 294 293 292 292 292 292 292 292 292 292 291 291 290 290 290 290 290 289 290 290 290 289 289 289 289 289 289 289 289 289 289 288 288 288 288 288 288 288 287 287 287 287 287 287 287 287 287 287 287 287 287 287 287 287 287 287 287 287 287 287 287 287 287 287 287 287 287 287 287 287 286 286 286 286 286 286 287
297 297 297 296 296 295 295 294 294 293 293 292 292 291 291 291 291 291 291 291 291 290 290 290 290 290 290 290 289 289 289 289 289 289 289 289 289 288 288 288 288 287 287 287 287 287 287 287 287 287 286 286 286 286 286 286 286 286 286 286 287 287 287 287 287 287 287 287 287 287 287 287 287 287 287 287 287 287 286 286 286 286 286 286 286 286
296 296 296 296 295 295 295 294 294 294 293 293 292 292 292 291 291 292 292 291 291 291 291 291 290 290 290 290 289 289 288 289 289 289 288 288 288 288 288 287 287 287 286 286 286 286 286 287 287 286 286 286 286 285 285 285 285 285 285 285 286 286 286 287 287 287 287 287 287 286 286 286 286 286 287 287 287 286 286 286 285 285 285 285 286 286
296 296 295 295 295 295 294 294 294 294 293 293 293 292 292 292 292 291 291 291 291 291 290 290 290 290 290 289 289 289 288 289 288 288 288 288 288 287 287 287 287 286 286 286 285 286 286 286 286 286 286 285 285 285 285 285 285 285 285 285 285 285 286 286 286 286 286 286 286 286 286 286 286 286 286 286 286 286 286 285 285 285 285 285 285 286
295 295 295 295 294 294 294 294 293 293 293 292 292 292 291 291 291 291 291 290 290 290 290 290 290 289 289 289 289 289 288 288 288 288 287 287 287 287 286 286 286 286 286 285 285 285 285 285 285 285 285 285 285 284 284 284 285 285 285 284 284 285 285 285 286 286 286 286 286 286 286 286 286 286 286 286 286 286 286 285 285 285 285 285 285 285
294 294 294 293 293 293 293 293 292 292 292 291 291 291 291 290 290 290 290 290 290 290 289 289 289 289 289 289 288 288 288 288 288 287 287 286 286 286 286 286 286 286 286 286 286 286 286 286 285 285 285 285 285 285 285 284 284 284 284 284 284 285 285 285 285 285 285 286 286 286 286 286 286 286 286 286 286 286 286 285 285 285 284 284 284 284
293 293 293 292 292 292 292 291 291 291 291 291 290 290 290 290 290 289 289 289 289 289 289 289 289 288 288 288 288 288 288 288 288 287 286 286 286 285 285 285 285 286 286 286 286 286 286 286 285 285 285 285 284 284 284 284 284 284 284 284 284 284 285 285 285 285 285 285 286 286 286 286 286 286 286 286 286 286 285 285 285 285 284 284 284 284
292 292 292 291 291 291 291 291 290 290 290 290 290 290 289 289 289 289 289 289 289 289 288 288 288 288 288 288 288 288 288 287 287 286 286 285 285 285 285 285 285 285 285 286 286 286 285 285 285 285 285 285 285 284 284 284 284 284 284 284 284 284 285 285 285 285 285 285 286 286 286 286 286 286 286 286 285 285 285 285 285 284 284 284 284 284
291 291 291 290 290 290 290 290 290 290 290 290 289 289 289 289 289 289 289 288 288 288 288 288 288 287 287 287 287 287 287 287 286 286 286 285 285 285 285 285 285 285 285 285 285 285 285 285 285 285 285 285 285 285 285 284 284 284 284 284 284 284 285 285 285 285 285 285 285 285 286 286 286 286 285 285 285 285 285 285 285 284 284 284 284 284
290 290 290 290 290 290 290 290 290 290 290 289 289 289 289 289 289 288 288 288 288 288 287 287 287 287 287 287 287 287 286 286 286 286 286 286 285 285 285 285 285 285 285 285 285 285 285 285 285 285 285 285 285 285 285 285 284 284 284 284 284 285 285 285 285 285 285 285 285 285 285 285 285 285 285 285 285 285 285 285 285 285 284 284 284 284
290 290 290 290 290 290 290 290 290 290 290 290 289 289 288 288 288 288 288 288 288 287 287 287 287 287 287 287 286 286 286 286 286 286 286 286 285 285 285 285 285 285 285 285 285 286 286 286 286 286 285 285 285 285 285 284 284 284 284 284 284 285 285 285 285 285 285 285 285 285 285 285 285 285 285 284 284 285 285 285 285 285 284 284 285 285
291 290 290 290 290 290 290 290 290 290 290 290 289 289 289 288 288 288 288 288 288 287 287 287 287 287 287 287 287 286 286 286 286 286 285 286 285 285 285 285 285 285 285 285 285 286 286 286 286 286 285 285 285 285 285 284 284 284 284 284 284 284 285 285 285 285 285 285 284 285 285 285 284 284 284 284 284 284 284 284 284 284 284 284 284 284
291 290 290 290 290 290 290 290 290 290 290 290 289 289 289 289 288 288 288 288 288 287 287 287 286 287 287 287 287 287 286 286 286 286 286 285 285 285 285 285 285 285 285 285 285 285 285 285 285 285 285 285 285 285 285 284 284 284 284 283 284 284 285 285 285 284 284 284 284 284 284 284 284 284 284 284 284 284 284 284 284 284 284 284 284 284
291 291 291 290 290 290 290 290 290 290 290 289 289 288 288 288 288 287 287 287 287 287 287 287 287 287 287 287 287 287 286 286 286 286 286 285 285 285 285 285 285 285 285 285 285 285 285 285 285 285 285 285 285 285 285 284 284 284 284 284 284 284 284 285 284 284 284 284 284 284 284 283 283 283 283 283 284 284 284 284 284 284 284 284 284 283
291 291 291 290 290 290 290 290 290 289 289 288 288 288 288 288 288 287 287 287 286 286 287 287 286 287 287 287 287 287 286 286 286 286 286 286 285 285 285 285 285 285 285 285 285 285 285 285 285 285 285 285 285 284 284 284 284 284 284 284 284 284 284 284 284 284 284 284 284 284 283 283 283 283 283 283 284 284 284 284 284 283 283 283 283 283
291 291 291 290 290 290 290 289 289 289 288 288 288 288 288 288 287 287 287 287 287 286 286 286 286 286 287 287 287 287 286 286 286 286 286 286 286 286 286 286 286 285 285 285 285 285 285 285 285 285 285 285 284 284 284 284 284 285 285 285 284 284 283 284 284 284 284 284 284 283 283 283 283 283 283 283 283 283 283 283 283 283 283 283 283 283
290 290 290 290 290 290 289 289 289 289 288 288 288 288 288 288 287 287 287 287 287 287 287 287 287 287 287 286 286 286 286 286 286 286 286 286 286 286 286 286 285 285 285 285 285 285 285 285 285 285 285 284 284 284 284 284 284 285 285 284 284 284 284 284 284 284 284 284 283 283 283 283 283 283 283 283 283 283 283 283 283 283 283 283 283 283
290 290 290 290 289 289 289 289 289 288 288 288 288 288 288 288 288 287 287 287 287 287 287 287 286 286 286 286 286 286 286 286 287 286 286 286 286 286 286 285 285 285 285 285 285 285 285 285 285 285 284 284 284 284 284 285 284 284 284 284 284 284 284 284 284 284 283 283 283 283 283 282 282 282 282 282 282 282 283 283 283 283 283 283 283 283
290 290 289 289 289 289 288 288 288 288 288 288 288 288 288 288 288 288 288 287 287 287 286 286 286 286 286 286 286 286 286 286 286 286 286 286 286 285 285 285 285 285 285 285 285 285 285 285 285 284 284 284 284 285 285 285 284 284 284 284 284 284 284 284 284 283 283 283 283 282 282 282 282 281 281 282 282 282 283 283 283 283 283 283 283 283
289 289 289 289 288 288 288 288 288 288 288 288 288 288 288 288 288 288 287 287 287 287 286 286 286 286 286 286 286 286 286 286 286 286 286 286 286 286 286 285 285 285 285 285 285 285 285 285 285 285 284 284 284 284 285 285 284 284 284 284 284 284 284 284 284 283 283 282 282 282 282 281 281 281 281 281 282 282 283 283 283 283 282 282 282 283
289 289 289 289 288 288 288 288 288 288 288 288 288 288 288 288 288 287 287 287 287 287 286 286 286 286 286 286 286 286 286 286 286 286 286 286 286 286 286 286 286 285 285 285 285 285 285 285 285 285 285 284 284 284 284 284 284 284 284 284 284 283 283 283 283 283 282 282 282 282 281 281 281 281 280 280 281 281 282 282 282 283 283 282 282 282
289 289 289 289 289 289 289 288 288 288 288 288 288 288 288 287 287 287 287 287 287 287 287 286 286 286 286 286 286 286 286 286 286 286 286 286 285 285 285 285 285 285 285 285 285 285 285 285 285 285 284 284 284 284 284 284 284 284 284 284 283 283 283 283 283 282 282 282 282 281 281 281 281 281 280 280 280 280 281 282 282 283 283 283 282 282
289 289 289 289 289 289 288 288 288 288 288 288 288 288 288 287 287 287 287 287 287 287 286 286 286 286 286 286 286 286 286 286 285 285 285 285 285 284 284 284 284 284 284 284 284 284 283 283 283 283 284 284 284 284 283 283 284 284 284 284 283 283 282 282 282 282 282 282 281 281 281 281 281 280 280 280 279 280 281 282 282 283 283 283 282 282
Wind_Speed
18 18 17 18 18 17 17 17 17 17 17 17 17 17 18 18 18 18 17 17 17 17 17 17 17 18 18 18 19 19 20 21 21 22 22 22 22 22 22 21 21 21 21 21 21 21 21 21 21 21 21 21 21 20 20 20 19 19 19 18 18 18 18 17 18 18 18 18 18 19 19 19 19 19 19 19 19 19 19 19 20 20 20 20 20 20
19 18 18 18 18 18 18 17 17 17 17 17 17 17 18 18 18 18 18 18 17 17 18 18 18 18 19 19 19 20 20 21 21 22 22 22 22 22 21 21 21 21 21 21 21 21 21 21 21 21 21 21 21 20 20 20 19 19 19 18 18 18 18 18 18 18 18 19 19 19 20 20 20 20 20 20 20 20 21 21 21 21 21 21 21 20
19 19 18 18 18 18 18 17 17 17 17 17 17 17 17 18 18 18 18 18 18 18 18 19 19 19 19 20 20 20 20 21 21 21 22 22 22 21 21 21 21 21 21 21 21 21 21 21 21 21 21 21 21 21 20 20 20 19 19 19 18 18 18 18 18 19 19 19 20 20 20 21 21 21 21 21 21 21 21 22 22 22 22 22 22 21
19 19 18 18 18 18 18 18 17 17 17 17 17 17 17 18 18 18 18 18 18 19 19 19 19 20 20 20 20 20 20 20 21 21 21 21 21 21 21 21 20 20 20 21 21 21 21 21 21 21 21 21 21 21 20 20 20 20 20 19 19 19 19 19 19 19 20 20 20 20 21 21 21 21 21 21 22 22 22 22 22 23 23 23 23 22
19 19 18 18 18 18 18 18 17 17 17 17 17 18 18 18 18 18 19 19 19 19 19 20 20 20 20 20 20 20 20 20 20 21 21 21 21 21 20 20 20 20 20 20 21 21 21 21 21 21 21 21 21 21 21 21 21 21 20 20 20 20 20 20 20 20 20 21 21 21 21 21 22 22 22 22 22 22 22 22 23 23 23 23 23 23
18 18 18 18 17 18 18 18 18 17 18 18 18 18 18 18 18 19 19 19 19 20 20 20 20 20 20 20 20 20 20 20 20 20 20 20 20 20 20 20 20 20 20 20 20 20 21 21 21 21 21 21 21 21 21 21 21 21 21 21 21 21 21 21 21 21 21 21 21 22 22 22 22 22 22 22 22 22 23 23 23 23 24 24 24 24
18 18 18 18 18 18 18 18 18 18 18 18 18 18 19 19 19 19 19 20 20 20 20 20 20 20 20 20 20 20 20 20 20 20 20 20 20 20 20 20 20 20 20 20 20 20 20 21 21 21 21 22 22 22 22 22 22 22 22 22 22 21 22 22 22 22 22 22 22 22 22 22 22 22 22 23 23 23 24 24 24 24 24 24 25 25
18 18 18 18 18 18 18 18 18 18 19 19 19 19 19 19 19 19 20 20 20 20 20 20 20 20 20 20 20 20 20 20 20 20 20 19 19 19 20 20 20 20 20 20 20 20 20 20 21 21 21 22 22 22 22 22 22 22 22 22 22 22 22 22 23 23 23 23 23 23 23 23 23 23 23 23 24 24 24 25 25 25 25 25 25 25
19 19 19 19 18 19 19 19 19 19 19 19 19 19 19 19 19 19 19 20 21 21 21 21 21 21 21 21 21 20 20 20 19 19 19 19 19 19 20 20 20 20 20 20 20 20 20 20 21 21 22 22 22 22 22 22 22 22 22 23 23 23 23 23 24 24 24 24 24 24 24 24 24 24 24 24 24 25 25 26 26 26 26 26 26 26
19 19 19 19 19 19 20 20 20 20 20 20 20 19 19 19 19 20 20 20 21 21 21 21 21 21 21 21 21 20 20 20 20 19 19 19 20 20 20 20 20 20 20 19 19 20 20 20 21 21 22 22 22 22 22 22 22 23 23 23 23 23 24 24 24 25 25 24 24 24 24 24 25 25 25 25 25 26 26 26 26 26 26 26 26 26
20 20 20 20 20 20 20 21 21 21 21 21 20 20 20 20 20 20 20 21 21 21 21 21 21 20 21 21 21 21 20 20 20 20 20 20 20 20 20 20 20 20 20 20 20 20 20 20 21 22 22 23 23 23 23 23 23 23 23 23 24 24 24 25 25 25 25 25 25 25 25 25 25 26 26 26 26 26 27 27 27 27 27 27 27 27
20 21 21 21 21 21 21 21 22 22 21 21 21 21 20 21 20 20 20 21 21 21 21 21 21 21 21 21 21 21 21 20 20 20 20 20 20 20 20 20 20 20 20 19 19 19 20 20 21 22 22 23 23 23 23 23 23 23 23 24 24 25 25 25 26 26 26 26 25 26 26 26 26 26 26 27 27 27 27 27 27 27 27 27 28 28
21 22 22 22 22 22 22 23 23 22 22 22 21 21 20 21 21 21 21 21 22 22 22 22 22 22 22 21 21 21 21 21 21 20 20 20 21 20 20 20 20 20 19 19 19 19 20 20 21 22 22 22 22 22 22 22 23 23 23 24 24 25 25 26 26 26 26 26 26 26 26 26 27 27 27 27 27 27 27 27 28 28 28 28 28 28
22 23 23 23 23 24 24 24 24 23 23 23 22 22 22 22 22 22 22 22 22 23 23 22 22 22 22 22 22 22 21 21 21 21 21 21 21 21 20 20 20 19 19 19 19 19 20 20 21 21 22 22 22 22 22 22 22 22 23 24 24 25 25 26 26 26 26 26 26 26 27 27 27 27 27 27 27 28 28 28 28 28 29 29 29 29
23 23 24 24 24 24 25 25 24 24 24 24 23 23 23 23 23 23 23 23 23 23 23 23 23 23 23 23 23 23 22 22 21 21 21 21 21 21 21 21 20 20 20 20 19 20 20 21 21 21 22 22 22 22 22 22 22 22 23 24 24 25 25 26 26 26 26 26 26 27 27 27 27 28 28 28 28 28 28 28 29 29 29 30 30 30
24 24 24 25 25 25 25 25 25 25 25 25 25 24 24 24 24 24 24 24 24 24 24 23 23 24 24 24 24 23 22 22 22 22 22 22 22 22 22 22 21 21 21 20 20 20 20 20 21 21 21 21 22 22 22 22 22 22 23 24 24 25 25 25 26 26 26 26 27 27 27 27 28 28 28 28 28 28 29 29 29 30 30 30 30 30
25 25 25 26 26 26 26 26 26 26 26 26 26 25 25 24 25 25 25 25 25 24 24 24 23 24 24 24 24 23 23 22 22 23 23 23 23 23 23 23 22 22 21 21 20 20 20 20 20 21 21 21 22 22 22 22 22 23 23 24 25 25 25 25 26 26 26 26 27 27 27 27 28 28 28 28 29 29 29 29 30 30 30 30 31 31
26 26 26 27 27 27 27 27 27 27 27 27 26 26 25 25 25 25 25 25 25 24 24 24 24 24 24 24 23 23 24 22 22 23 24 24 23 23 24 24 23 23 22 21 21 20 20 20 20 21 21 22 22 22 23 23 23 24 24 24 25 25 25 25 25 26 26 26 26 27 27 27 28 28 28 29 29 29 29 30 30 30 31 31 31 31
27 27 27 27 27 27 27 28 28 28 27 26 26 25 25 26 26 25 25 25 24 24 23 24 24 25 25 24 23 24 24 23 23 23 24 24 24 24 24 24 24 24 23 22 21 20 20 20 20 21 22 22 22 23 23 23 24 24 24 25 25 25 25 25 25 26 26 26 26 26 27 27 28 28 29 29 29 30 30 30 31 31 31 31 32 32
28 28 28 28 28 28 28 28 28 27 26 26 26 26 26 26 26 25 25 25 24 24 24 24 24 25 25 24 23 23 24 23 23 23 24 25 25 25 25 25 25 24 24 22 22 21 21 20 21 21 22 22 22 22 23 23 23 24 24 24 24 24 25 25 25 25 26 26 26 26 27 27 28 28 29 29 30 30 30 31 31 31 31 32 32 32
29 29 28 28 27 28 28 27 27 26 26 26 26 26 26 26 25 25 25 24 24 24 24 24 24 24 24 23 23 23 24 23 22 23 25 26 26 25 25 25 24 24 24 23 22 22 21 21 21 21 21 21 21 21 21 22 22 23 23 23 24 24 24 25 25 25 25 26 26 26 27 27 28 28 29 29 29 30 30 30 31 31 32 32 32 32
28 28 27 27 27 27 27 26 26 26 26 26 26 25 26 25 25 24 24 23 23 23 23 23 23 24 24 24 23 23 24 23 22 22 24 25 26 26 25 24 24 24 24 24 23 23 22 21 21 20 20 20 20 20 20 21 21 22 22 22 23 23 24 24 25 25 25 25 26 26 26 27 27 28 28 28 29 29 29 30 30 31 31 32 32 32
26 26 25 26 26 25 25 25 25 25 25 25 25 25 25 24 24 23 23 23 23 23 23 23 24 24 25 24 24 23 22 21 21 22 23 25 26 26 25 25 25 25 25 25 24 23 22 21 20 20 19 18 18 19 19 20 20 21 21 22 22 23 23 24 24 25 25 25 25 25 26 26 26 27 27 27 28 28 29 29 30 31 31 32 32 32
24 24 24 24 24 24 24 24 24 24 24 24 24 23 23 23 22 22 23 22 22 23 23 23 23 23 23 23 23 22 21 21 20 21 22 24 25 26 25 25 26 26 26 25 25 24 23 22 21 20 19 18 18 18 19 19 19 20 20 20 21 22 22 23 24 24 25 25 25 25 25 25 25 25 26 27 27 28 28 29 30 30 31 32 32 32
23 23 23 23 23 23 23 23 23 23 23 22 22 22 21 21 21 21 21 21 21 20 20 20 21 21 22 22 22 22 22 21 20 20 21 23 25 26 26 26 26 26 26 26 25 25 24 24 23 21 20 19 19 18 18 18 18 18 18 19 19 20 21 22 23 24 24 25 24 24 24 24 24 24 25 26 27 27 28 29 29 30 31 31 32 32
23 23 22 22 22 22 22 22 22 22 22 22 21 20 20 19 19 19 19 18 18 17 17 18 20 21 22 22 22 22 21 20 20 20 20 22 24 26 26 25 25 25 25 26 25 25 25 25 25 24 22 21 19 18 17 16 16 16 17 18 19 20 21 22 23 24 24 25 25 24 24 24 24 24 25 26 26 27 28 28 29 30 30 31 32 32
22 22 22 22 22 22 22 22 21 21 21 21 20 20 19 18 17 17 17 17 17 16 17 18 20 21 21 21 20 20 20 19 19 20 21 22 24 25 25 24 23 24 25 25 26 26 26 26 26 25 24 22 20 18 17 16 16 16 16 17 18 20 21 22 23 24 24 25 25 24 24 24 24 25 25 26 26 27 27 28 29 29 30 31 31 32
22 22 21 21 21 21 21 21 20 20 20 20 20 19 19 17 17 17 18 18 17 17 18 19 19 20 20 20 21 21 21 21 20 21 21 22 23 24 23 22 22 23 24 25 26 27 27 26 26 25 24 23 22 21 19 19 18 18 18 18 18 19 20 21 22 23 24 24 24 24 24 24 25 25 26 27 27 27 27 28 28 29 30 31 31 31
21 21 21 21 20 20 20 20 19 19 19 18 18 17 17 17 17 18 19 19 18 18 19 20 21 21 22 22 23 22 22 22 21 20 20 19 21 22 21 21 21 22 23 25 26 27 26 25 24 23 22 22 23 23 24 23 23 21 20 18 17 17 18 20 21 23 24 24 24 24 24 25 25 26 27 27 27 27 27 27 28 29 30 30 31 31
21 20 20 20 20 20 20 19 19 19 19 18 17 17 17 18 19 19 20 20 20 21 22 23 23 23 23 23 23 22 22 20 18 17 16 17 18 20 20 21 21 21 22 23 25 26 26 24 22 21 21 22 24 25 26 26 26 25 23 21 19 18 18 19 21 23 24 25 25 25 25 26 27 27 28 28 28 27 27 27 27 28 29 30 31 31
20 20 19 19 19 19 19 20 19 19 19 18 18 18 18 19 20 20 20 20 21 21 22 22 21 21 20 20 21 21 19 17 16 15 16 16 18 20 21 21 21 21 21 21 22 24 25 25 23 22 22 24 26 27 27 27 26 26 26 26 24 23 22 22 22 24 25 26 26 26 27 27 28 28 29 28 28 27 26 26 27 27 29 29 30 31
19 19 18 18 18 19 19 19 18 18 18 18 18 18 18 18 18 18 18 18 18 18 18 18 17 17 17 18 19 19 18 17 16 17 17 18 19 21 21 21 21 21 20 20 20 21 23 25 26 26 26 27 28 28 28 26 25 25 26 27 28 28 27 26 26 27 27 27 28 28 28 29 29 29 29 28 28 27 26 25 26 26 28 28 29 30
18 18 18 18 18 18 18 18 17 17 16 16 16 16 16 15 15 15 15 15 15 15 15 15 15 16 16 17 18 19 19 18 18 18 18 18 20 21 21 20 20 20 20 21 21 21 23 25 27 28 28 28 27 27 26 25 25 25 26 27 29 30 31 31 31 31 30 30 30 29 29 30 30 30 29 28 27 26 25 25 25 25 26 27 28 29
18 18 18 18 18 17 17 16 16 15 15 14 14 14 13 13 13 13 13 14 14 15 15 15 15 16 16 17 19 20 20 19 17 17 17 18 19 20 20 20 20 20 21 21 22 22 24 25 26 27 27 28 27 26 25 25 25 26 27 28 30 31 32 33 33 34 33 32 32 31 31 30 30 30 29 28 27 26 25 25 24 25 25 25 26 27
17 17 17 17 17 16 16 15 14 14 13 13 13 12 12 12 12 12 13 13 14 15 15 16 16 16 17 18 19 20 20 18 16 15 15 16 17 18 19 19 19 19 20 21 22 23 24 24 24 25 26 27 27 27 25 25 25 26 28 29 31 32 33 34 35 35 34 34 33 32 32 32 31 31 29 28 27 26 25 24 24 24 24 24 25 26
17 17 17 16 16 15 15 15 14 13 13 13 13 13 12 12 12 12 13 14 15 15 16 16 16 16 17 17 18 19 18 16 14 14 14 14 15 16 17 19 19 19 19 20 21 22 24 25 25 25 26 27 27 27 26 26 25 27 28 31 32 34 35 35 36 35 35 34 34 33 33 32 32 31 29 28 26 25 25 25 24 24 24 24 24 24
17 17 17 16 16 16 15 15 14 14 13 13 13 12 12 11 11 12 13 13 14 15 15 15 15 15 15 16 17 17 16 15 14 13 11 11 13 15 17 19 19 19 19 20 21 22 23 25 26 26 25 25 26 26 27 27 28 29 31 33 34 35 36 35 35 35 35 35 35 34 33 33 32 30 29 27 26 26 25 25 24 24 24 24 24 24
16 16 16 15 15 14 14 14 13 12 12 11 11 10 10 11 11 12 12 13 13 14 14 14 14 14 14 14 15 16 16 16 15 12 10 10 12 15 17 18 19 19 18 19 20 21 22 24 25 26 26 26 26 27 28 29 30 32 34 35 35 35 35 35 34 34 34 35 35 34 33 32 31 29 28 27 26 26 26 25 25 25 25 25 25 25
13 13 13 13 12 12 11 11 10 10 10 10 10 10 11 11 12 12 13 13 13 13 13 13 12 13 13 14 15 16 17 17 15 13 11 12 13 15 17 18 19 19 19 19 19 20 21 22 24 25 27 28 28 29 29 30 32 34 36 37 36 35 34 34 34 34 35 35 35 34 33 31 30 29 28 27 27 27 26 26 26 26 25 26 26 26
12 13 13 12 11 11 11 10 10 10 10 11 11 12 13 13 13 13 13 13 13 13 12 12 12 13 14 15 16 16 17 17 16 15 14 14 15 16 17 19 19 20 20 20 20 20 20 22 23 24 26 27 29 30 32 33 34 35 36 36 37 37 35 34 35 35 35 35 34 34 33 31 29 28 27 27 27 27 27 27 27 26 26 26 27 27
13 14 14 13 12 12 12 12 12 12 13 14 14 14 14 14 14 14 13 13 13 12 12 12 12 14 15 16 17 17 16 16 16 16 16 16 16 17 18 19 20 20 20 21 21 22 22 23 25 26 28 29 30 32 33 34 34 34 34 35 37 37 36 36 35 35 34 34 33 32 31 30 28 27 27 27 27 27 26 27 27 27 26 26 27 27
15 16 15 14 14 14 14 14 15 15 15 16 16 15 15 14 13 13 13 13 13 13 12 13 14 16 18 18 18 16 15 14 14 14 15 16 16 17 18 19 19 20 21 22 23 24 25 26 27 28 29 30 31 32 33 34 33 33 34 35 36 37 37 36 34 33 33 33 32 31 29 28 27 27 27 27 27 27 26 26 26 27 27 27 27 27
18 17 16 16 16 16 16 17 17 17 17 16 15 14 13 13 13 13 14 15 15 14 14 15 16 18 20 20 19 16 14 13 13 13 14 14 15 15 16 17 18 20 21 22 23 25 25 26 27 27 28 29 29 30 32 33 33 33 33 33 34 36 37 36 35 33 33 32 30 29 27 26 26 27 27 28 28 28 27 27 27 27 27 27 27 27
18 17 17 18 18 18 19 19 18 17 16 15 14 13 13 13 13 14 15 16 16 16 17 17 18 19 20 21 19 17 14 13 12 12 12 12 12 13 15 16 18 19 20 21 22 24 24 25 26 26 26 27 28 29 31 32 33 33 33 32 32 33 34 35 34 33 32 30 28 27 26 26 26 27 28 28 29 29 28 28 28 28 28 28 28 28
18 18 18 19 19 19 18 17 16 14 14 13 13 13 13 13 14 15 16 16 17 17 17 17 18 18 19 19 18 17 15 14 13 12 12 13 14 16 17 18 18 19 19 20 21 22 23 24 25 25 25 26 27 28 30 31 32 33 32 32 31 31 32 32 31 30 29 28 27 26 25 26 27 28 29 30 30 30 29 29 29 29 29 28 28 28
18 19 19 18 18 17 16 14 13 13 13 14 14 14 14 14 14 15 15 16 16 16 16 16 16 17 17 18 17 16 15 14 13 13 14 15 16 17 18 18 18 18 19 19 20 21 22 23 24 24 25 26 28 29 29 30 31 31 31 30 30 30 30 29 28 28 27 27 26 26 26 26 27 28 29 30 31 31 30 30 30 30 30 29 29 29
18 17 17 16 14 13 13 12 13 14 15 16 15 15 14 14 14 14 15 15 15 14 14 14 15 16 17 17 17 16 15 15 15 14 14 15 15 16 16 16 17 18 18 19 19 20 21 22 23 24 25 26 28 29 29 28 28 28 28 28 28 28 28 28 27 26 26 26 26 26 26 27 28 29 30 31 32 32 31 31 30 30 30 30 30 30
15 14 13 12 12 12 13 14 15 16 16 16 15 14 14 13 13 14 14 14 14 13 13 13 15 16 16 16 16 15 15 15 15 15 15 15 15 15 15 16 16 17 18 18 19 20 20 21 22 23 24 25 26 27 27 26 26 25 25 26 26 27 28 28 27 26 25 25 26 26 27 27 28 29 31 32 33 33 33 32 32 31 31 31 31 31
12 12 12 12 12 13 14 15 15 16 16 15 14 13 13 13 13 13 13 13 13 13 13 14 15 16 16 16 16 16 16 16 16 16 16 15 15 15 15 16 16 17 18 19 19 20 21 22 22 23 23 23 24 25 25 25 24 24 24 25 26 27 28 27 26 26 26 26 26 26 27 27 28 29 30 31 33 34 35 34 33 33 32 31 31 31
12 12 12 12 13 13 14 14 14 14 14 14 13 13 13 13 13 13 13 14 14 14 14 15 15 16 17 18 18 18 18 18 17 17 16 15 15 15 16 17 17 18 20 21 21 22 24 24 25 25 24 24 23 23 24 24 25 25 25 26 26 26 27 27 27 26 26 26 27 27 27 28 28 28 29 30 31 33 35 36 35 34 33 32 31 31
13 13 13 13 13 14 14 14 14 13 13 13 13 14 14 14 14 14 14 15 15 15 15 15 16 17 18 19 19 19 19 19 18 17 16 15 15 15 16 17 18 20 21 22 23 24 25 25 25 25 25 24 23 23 23 24 25 26 27 27 26 26 26 26 26 26 26 27 27 28 28 28 28 28 28 29 31 33 35 36 36 35 34 33 32 31
Wind_Direction
262 262 263 264 265 265 265 266 267 269 270 271 272 273 275 276 278 280 282 283 284 285 286 287 288 290 291 292 293 293 293 293 294 294 294 294 295 296 296 297 297 297 297 298 298 298 298 298 298 297 297 296 296 297 297 298 298 298 299 300 300 301 303 304 305 306 306 307 308 309 310 311 312 312 313 313 313 314 314 315 315 316 316 316 316 316
263 263 263 264 266 267 267 268 269 270 271 272 272 272 274 276 278 280 282 284 285 286 286 288 289 290 291 292 293 293 292 292 292 293 293 293 294 294 295 295 295 296 296 297 297 297 297 297 297 296 296 295 295 295 296 296 297 297 298 299 300 302 304 305 306 307 308 309 310 311 312 312 312 313 313 314 314 315 315 316 316 316 317 317 317 317
263 264 264 265 266 267 269 269 270 270 271 271 271 271 272 274 276 278 280 282 284 285 286 287 288 289 290 291 291 291 291 291 291 291 291 292 292 292 293 293 294 294 295 295 295 296 296 296 295 295 295 295 295 295 295 296 297 298 299 301 303 304 306 307 308 308 309 310 311 311 311 311 312 312 313 313 314 315 315 315 316 316 316 316 316 316
261 262 264 266 267 268 269 270 270 270 270 270 270 270 271 273 274 276 278 279 281 283 284 285 287 288 289 289 289 289 289 289 289 289 290 290 290 290 291 291 292 293 293 294 294 294 294 295 294 294 294 294 295 295 296 297 299 300 302 304 305 307 307 308 308 309 309 310 310 310 310 310 310 310 311 312 313 313 313 314 314 314 315 315 315 315
259 261 262 264 265 266 268 269 269 269 269 269 270 270 271 272 274 276 277 278 279 281 282 283 285 286 286 287 287 287 287 287 288 288 288 288 288 289 289 290 291 291 292 292 293 293 294 294 294 294 294 295 296 297 298 300 302 303 305 306 307 308 308 308 308 308 308 308 308 308 308 308 308 309 310 310 311 311 311 311 311 312 312 312 312 312
258 259 261 262 263 264 266 267 267 268 268 268 269 270 271 272 273 275 276 278 279 279 281 282 283 284 285 285 286 286 286 286 286 287 287 287 287 287 288 289 290 290 291 291 292 292 293 293 294 294 295 296 297 299 301 302 304 305 306 307 308 307 307 307 307 306 306 306 306 306 306 306 307 308 308 309 309 309 309 309 309 309 309 310 310 310
258 259 260 261 262 263 264 265 265 266 266 266 267 268 270 271 272 273 275 276 278 279 280 281 282 283 284 285 285 286 286 286 286 286 286 286 286 287 287 288 289 290 290 291 292 292 293 293 294 294 295 297 299 300 302 304 305 306 307 307 307 306 306 306 305 305 305 304 304 304 305 305 306 307 307 308 308 308 308 308 307 307 307 307 307 307
258 260 261 261 261 262 263 264 265 265 265 265 266 267 268 269 270 271 273 275 276 278 279 280 281 282 283 284 285 286 286 286 286 285 285 285 285 286 287 287 288 289 290 290 291 292 293 293 294 295 296 298 299 301 302 304 305 305 305 305 305 305 304 304 303 303 303 303 303 304 304 305 305 306 306 307 307 306 306 306 305 305 305 305 305 305
258 260 261 262 262 263 263 264 265 266 266 266 266 267 267 267 268 269 271 273 275 276 278 279 281 283 284 285 286 287 287 286 285 284 284 284 284 285 286 287 288 288 289 290 291 291 292 293 294 295 296 298 300 301 302 303 304 304 304 304 303 303 302 302 302 302 302 303 303 303 304 304 305 305 305 305 305 304 304 303 303 303 303 303 303 303
259 260 262 263 264 264 265 265 266 268 268 269 269 269 269 268 268 269 270 271 274 276 277 278 279 282 284 285 286 287 287 286 285 284 284 284 284 285 285 286 287 287 288 289 290 291 292 293 294 295 297 299 300 301 302 302 303 303 302 302 302 301 301 301 301 302 302 302 303 303 303 304 304 304 304 304 303 302 301 301 301 301 301 301 301 301
260 261 262 263 264 266 267 267 268 269 271 271 272 272 271 270 270 270 271 271 273 275 276 277 278 280 282 284 285 286 286 285 285 284 284 284 284 284 285 285 286 287 287 288 290 291 292 294 295 296 298 299 300 301 301 301 301 301 301 300 300 300 300 300 301 301 302 302 302 302 303 302 302 302 302 301 300 300 299 299 299 299 299 300 300 300
261 262 263 264 266 267 268 269 270 271 272 273 273 273 273 272 271 271 271 271 272 273 275 277 278 280 280 281 282 283 283 283 282 282 283 283 283 283 283 284 285 286 287 288 289 291 292 293 294 295 297 298 299 299 299 300 299 299 299 299 299 299 299 299 300 300 301 301 301 301 301 301 300 300 299 298 298 297 297 297 297 298 298 298 299 299
262 263 265 266 268 269 270 271 271 272 273 274 274 273 273 273 272 271 271 271 272 272 274 276 278 279 280 280 280 280 281 280 280 280 280 280 280 280 281 281 282 283 284 285 287 288 289 291 292 294 295 296 296 297 297 297 297 297 297 297 297 297 297 298 298 299 299 299 299 299 299 299 298 297 297 296 296 296 296 296 296 297 297 297 298 299
262 264 266 267 269 271 272 273 273 274 275 275 275 274 273 273 273 273 272 272 273 274 275 276 278 279 280 279 279 279 279 279 280 279 279 279 278 278 278 279 279 280 281 283 284 286 287 289 290 292 293 294 294 294 295 294 294 294 294 294 294 295 295 296 296 297 297 297 297 297 297 297 296 296 295 295 295 295 295 295 296 296 296 297 297 298
263 264 266 268 270 272 273 274 275 276 276 276 276 275 274 274 274 274 274 274 274 275 276 277 278 279 279 279 279 280 280 280 280 279 279 278 278 278 278 279 279 280 281 283 285 286 288 289 290 290 291 292 292 292 292 292 291 291 291 291 292 292 293 293 294 294 295 295 296 296 296 296 295 295 295 295 294 294 295 295 295 296 296 297 297 298
264 266 267 269 271 272 273 275 275 276 276 276 276 275 275 275 275 275 275 275 275 276 277 277 278 279 279 280 280 281 281 281 280 280 279 278 279 280 280 280 281 281 283 285 286 287 288 289 289 289 289 289 290 290 290 289 289 289 288 289 289 290 290 291 292 293 293 294 295 295 295 295 295 294 294 294 294 294 294 295 295 295 296 297 297 298
265 266 268 270 271 272 273 274 275 275 275 275 275 275 275 274 274 275 275 275 276 276 277 277 278 278 279 280 281 282 282 282 281 281 280 279 280 281 281 282 282 283 284 286 288 288 289 288 288 288 288 288 288 288 288 287 287 287 287 287 287 288 289 289 290 292 293 294 295 295 295 294 294 294 293 293 293 293 294 294 294 295 295 295 295 295
266 267 268 270 271 272 273 273 274 274 274 274 274 275 274 274 274 274 275 275 276 276 276 277 276 276 278 279 281 283 283 283 282 281 281 280 280 281 282 283 283 284 285 287 288 289 290 289 289 288 288 287 287 287 287 287 286 286 286 286 286 287 288 289 290 291 293 294 294 295 294 294 293 293 292 292 292 293 293 293 293 293 293 293 293 293
267 268 268 269 270 272 272 272 272 273 273 273 273 273 273 273 273 274 274 275 275 275 275 276 276 276 278 279 281 282 282 283 283 282 282 281 281 282 284 285 286 286 287 289 291 291 291 291 290 290 289 288 288 288 287 287 286 286 286 286 286 287 287 289 290 292 293 294 294 294 293 293 292 292 292 292 292 292 292 292 292 291 291 291 291 291
267 268 269 269 270 270 270 271 271 272 272 271 271 271 271 272 272 273 274 274 275 275 275 275 276 277 278 279 280 281 281 283 284 285 285 283 283 284 286 288 290 290 291 292 293 294 293 293 292 291 290 290 289 289 288 287 287 286 286 286 286 287 288 289 291 292 293 294 294 294 294 293 293 293 293 292 292 292 292 291 291 290 290 290 290 290
267 268 269 270 269 269 269 269 270 270 269 269 269 270 270 271 272 272 273 274 274 275 275 275 276 277 278 278 279 280 282 285 288 289 289 287 287 288 290 292 293 293 294 294 295 295 294 293 292 292 291 291 290 290 289 288 287 286 286 286 286 287 288 289 290 292 293 294 294 294 295 295 295 294 294 294 293 292 292 291 291 290 290 289 289 290
267 268 269 269 268 267 267 267 267 267 267 268 268 269 270 271 271 272 272 273 274 274 275 276 276 276 276 277 278 281 283 287 291 293 293 293 292 292 293 295 296 296 296 296 296 296 295 294 293 292 292 292 292 291 290 289 288 288 287 287 287 287 288 289 290 291 292 293 295 296 296 297 297 297 297 296 295 294 293 292 291 291 290 290 290 290
268 269 269 268 267 267 266 266 266 266 267 268 269 269 270 270 271 272 273 273 273 274 274 275 275 276 277 278 280 282 285 289 292 294 295 295 295 295 296 298 299 299 299 299 299 298 297 296 295 294 294 294 293 292 291 290 290 289 289 288 288 288 288 289 289 290 292 293 295 298 299 300 301 300 300 299 298 296 295 294 293 292 291 290 290 290
268 268 268 267 267 267 267 266 266 267 268 269 270 270 271 271 271 272 272 272 273 273 275 276 278 280 281 282 284 287 289 292 295 297 297 295 296 298 300 301 302 303 302 302 302 301 300 298 297 297 297 296 296 294 293 292 291 291 290 289 289 289 289 289 290 290 292 294 296 299 302 303 304 303 303 301 300 298 297 295 294 292 291 291 290 290
267 267 266 267 267 267 267 268 268 269 269 270 271 271 272 272 272 272 272 273 275 277 279 282 284 286 287 289 292 294 296 297 299 299 297 296 297 299 301 303 304 304 304 304 303 303 302 301 300 300 300 299 298 297 296 294 293 292 291 290 290 290 291 291 291 291 292 294 297 300 302 305 306 306 305 304 302 300 298 296 294 293 292 291 290 290
266 266 265 266 266 267 268 269 270 271 271 272 272 273 273 273 273 273 274 276 278 280 283 284 286 288 291 294 297 298 299 299 298 297 295 295 297 299 300 303 304 303 303 304 304 304 304 304 304 304 304 303 302 300 299 297 295 294 293 293 293 294 294 293 293 293 293 294 296 299 302 305 308 309 309 307 305 303 300 298 296 294 293 292 291 291
264 265 265 266 267 268 269 270 271 272 273 274 274 274 275 276 276 277 277 278 281 283 285 285 286 288 290 291 291 292 294 293 291 290 292 294 295 296 299 302 303 303 303 304 304 305 306 307 307 308 308 307 306 304 302 300 298 296 296 296 297 297 296 295 294 293 293 294 296 299 303 307 310 312 312 310 308 305 303 300 298 296 295 294 293 293
261 262 263 264 266 267 268 270 271 272 273 275 276 276 277 278 278 278 278 280 283 283 282 280 280 282 282 281 282 284 285 284 284 286 289 291 292 294 298 301 302 303 304 305 305 306 307 308 309 310 311 310 310 309 307 305 302 300 298 298 299 298 297 296 295 294 294 295 298 301 305 310 313 314 315 313 311 308 305 302 300 298 296 296 295 295
258 259 260 261 263 264 264 265 266 267 268 269 270 271 273 273 272 272 274 276 275 274 272 272 272 273 275 277 279 281 281 281 283 286 289 290 291 293 299 300 301 303 305 307 307 307 307 309 310 311 311 310 310 311 312 311 309 307 305 303 302 301 300 299 298 298 298 299 301 305 309 313 315 317 317 315 313 310 307 304 302 300 298 298 298 298
256 257 258 258 259 260 260 260 260 261 261 260 258 257 258 260 260 261 263 264 264 263 264 265 267 270 272 276 278 279 279 282 285 287 289 290 291 293 297 299 300 302 306 308 309 309 308 308 308 309 309 309 310 312 315 317 317 317 315 314 313 311 309 307 305 304 303 304 306 309 312 315 317 318 318 316 314 311 308 306 303 301 300 300 299 299
254 255 255 256 256 257 257 257 257 257 257 256 254 252 251 252 254 255 257 257 258 259 261 264 266 268 270 272 273 274 278 284 287 287 290 290 291 292 295 297 300 302 305 308 309 308 308 307 305 305 306 308 310 313 317 320 322 322 321 320 320 320 319 316 313 310 308 308 310 312 315 317 318 318 318 316 314 311 309 306 304 303 302 301 300 300
251 252 252 252 253 253 253 254 254 254 254 254 253 252 251 252 253 254 255 255 256 258 260 262 264 265 265 266 267 271 275 281 284 286 290 291 291 293 295 297 301 304 306 308 306 303 302 303 304 305 307 310 313 315 318 320 320 319 318 317 319 320 322 321 317 314 312 312 313 314 316 318 318 318 317 316 314 311 309 307 305 303 303 302 301 301
249 249 249 249 250 250 250 251 251 251 251 251 251 251 251 251 252 252 252 253 253 254 255 257 259 260 262 263 267 271 276 281 284 288 291 292 293 294 296 299 303 306 308 308 305 302 300 300 303 306 308 310 312 314 315 316 315 313 313 314 316 319 320 320 318 316 314 314 315 316 317 318 318 318 317 315 313 311 309 307 305 304 304 303 303 303
248 248 248 248 248 248 249 248 248 248 248 248 248 248 248 249 249 249 249 249 251 252 253 256 258 261 265 268 272 275 279 284 289 292 294 293 293 294 297 299 302 305 306 306 304 302 300 298 300 303 305 307 308 308 309 310 310 310 311 313 315 316 317 316 315 314 314 315 316 317 318 318 318 318 317 315 313 311 309 307 306 305 305 304 304 303
244 245 245 245 245 244 244 243 242 241 240 241 242 243 244 245 246 247 248 248 250 252 255 259 262 265 268 272 276 279 284 289 293 294 292 290 290 291 293 294 296 298 300 300 300 299 298 297 297 298 301 304 305 305 305 306 308 309 310 312 313 313 313 313 312 312 314 315 317 318 319 319 319 318 317 315 313 311 310 308 307 306 304 303 302 302
236 236 236 236 236 235 235 235 234 232 231 233 237 241 243 245 246 247 248 250 252 255 258 261 263 266 269 272 275 280 285 290 292 289 286 284 284 285 285 286 287 290 292 293 294 295 295 296 296 297 299 300 302 303 304 305 306 307 308 309 309 309 309 310 311 312 314 315 317 318 319 319 319 318 317 315 313 311 309 308 306 305 304 302 301 300
224 224 226 228 229 229 230 232 232 232 233 238 244 248 249 251 252 254 255 258 260 262 264 266 268 270 273 276 278 280 284 286 286 284 283 283 283 282 282 283 284 286 287 288 289 291 292 294 296 298 298 297 298 300 302 304 305 304 305 305 306 306 307 308 310 312 314 316 317 318 319 319 318 317 316 314 312 310 308 307 306 305 304 302 301 300
225 225 226 229 231 232 234 236 238 241 247 256 262 264 263 263 263 263 264 266 268 269 270 272 273 275 276 278 279 280 280 280 281 281 282 279 279 280 281 283 285 285 284 284 285 287 290 293 295 296 297 296 297 298 300 302 302 302 302 303 304 304 306 308 311 313 315 316 317 318 318 318 318 317 315 313 311 310 308 307 307 306 305 304 303 302
240 241 242 244 246 247 249 251 254 260 267 273 275 274 272 270 269 268 268 268 269 269 270 272 274 276 277 276 276 276 276 276 276 274 272 270 272 276 278 280 281 280 280 279 280 283 287 290 293 295 296 297 298 298 297 298 299 300 300 301 303 304 306 309 312 314 316 317 317 318 318 318 317 316 315 313 312 311 310 309 309 309 308 307 306 304
256 259 263 266 267 268 270 272 275 277 277 275 272 270 268 266 265 265 266 266 265 265 267 270 274 277 278 278 278 279 279 280 278 275 271 268 268 271 273 274 275 275 276 276 277 279 283 286 288 289 291 293 294 294 294 294 296 298 299 301 302 304 308 311 313 315 316 317 318 318 318 318 317 316 314 313 312 312 312 312 312 311 311 310 311 310
261 264 268 271 273 276 279 280 279 276 274 271 268 266 263 263 262 263 266 267 267 267 269 272 274 275 276 278 280 282 283 283 282 279 275 270 268 267 269 270 271 272 272 274 274 276 277 279 281 282 284 286 288 290 291 292 294 296 298 299 301 305 309 312 315 316 317 317 317 317 317 317 316 315 314 313 312 312 312 313 313 313 312 313 314 315
257 259 262 265 267 269 271 272 272 271 270 268 267 266 266 268 271 275 277 277 276 275 275 273 272 271 272 273 276 278 278 278 277 275 273 270 267 265 266 267 269 270 271 273 275 276 276 277 279 280 282 284 287 289 290 292 294 296 297 299 303 308 311 314 316 316 316 316 316 316 316 316 315 314 314 313 313 313 312 313 313 314 315 316 316 316
250 253 257 260 262 263 265 265 265 265 265 265 265 265 268 271 274 277 278 278 278 277 275 271 269 269 271 273 275 276 275 274 272 270 269 268 267 267 267 269 270 272 274 276 278 279 279 280 280 282 283 285 286 288 290 292 294 297 300 303 306 309 310 313 315 316 315 315 315 316 316 316 316 315 315 314 314 314 314 315 315 316 316 316 316 315
246 250 253 255 257 259 260 260 261 261 262 261 262 263 265 267 270 272 274 275 277 276 274 271 270 270 271 273 275 277 277 276 275 273 274 276 278 279 280 280 280 279 279 280 281 282 283 283 283 283 285 285 287 288 290 293 296 299 303 307 309 309 308 311 313 314 314 315 316 317 318 318 318 317 317 316 316 316 316 316 316 316 316 316 316 315
243 246 249 251 252 254 255 256 258 260 262 264 266 267 268 269 270 270 272 273 274 274 272 271 270 269 269 270 271 274 277 280 282 285 288 290 292 292 291 290 289 288 286 285 284 284 284 284 284 286 287 287 287 288 291 295 299 303 306 309 310 309 309 310 312 313 314 315 317 318 319 320 320 320 319 318 317 317 316 316 316 316 315 315 315 315
241 243 245 248 250 251 254 258 262 267 271 273 274 274 272 271 270 270 271 272 273 273 273 272 270 269 269 269 271 275 279 283 287 290 291 291 291 291 291 291 291 291 290 288 287 286 285 285 286 288 289 290 290 291 294 298 302 305 308 310 310 310 309 310 311 313 315 316 318 320 321 322 322 320 318 317 316 315 315 315 315 315 315 316 316 317
242 244 246 249 252 256 261 265 269 272 274 274 274 272 270 268 267 268 270 272 272 272 271 270 268 267 268 271 274 277 281 285 287 287 286 286 286 287 289 290 290 290 290 290 290 289 289 288 289 290 292 293 294 297 300 303 305 307 309 310 311 310 310 311 313 315 317 318 319 321 323 323 321 319 316 315 315 314 314 314 314 314 315 316 317 317
246 248 251 254 257 260 262 264 265 266 267 267 267 267 264 263 264 266 268 270 271 270 268 267 267 267 269 271 274 276 278 281 282 283 284 286 288 290 291 292 293 293 293 293 294 294 294 294 293 294 295 297 298 301 304 307 309 310 310 311 311 311 311 313 315 317 318 319 320 321 322 321 319 317 316 315 315 314 314 315 315 315 315 316 317 317
250 252 253 254 254 254 255 256 258 258 259 261 261 261 259 260 261 263 265 267 268 268 268 267 268 269 270 271 272 273 275 278 280 283 287 291 294 296 297 298 299 301 302 302 303 303 303 302 301 300 301 302 303 305 307 310 312 313 312 312 312 313 313 314 316 318 319 319 319 319 319 318 317 316 316 314 313 313 314 314 314 314 315 316 317 317
249 249 249 249 247 247 248 249 250 251 252 254 254 254 254 256 258 259 261 263 265 266 267 268 270 272 274 275 276 278 280 283 286 290 294 298 302 304 305 307 308 310 312 313 313 314 313 312 310 308 307 308 308 309 311 313 315 315 314 314 314 314 314 314 316 317 318 317 317 317 317 317 318 318 316 313 311 311 312 313 313 314 315 317 317 318
243 243 243 243 243 243 243 244 244 244 246 247 249 251 252 254 255 257 259 260 262 264 266 269 272 276 278 281 283 285 287 290 293 296 299 302 305 307 309 311 313 315 316 315 315 315 315 313 311 310 309 310 311 312 313 314 315 315 314 314 315 314 313 313 314 315 316 316 316 317 318 318 318 317 315 311 308 308 309 311 312 313 315 317 318 318